Location: *
(46.1200°N, 11.2700°E)
Time: 00:50:15
(UTC+00:00)

SJ-6B - Pass Details

Date: 02 March 2021
Orbit: 509 x 581 km, 97.6° (Epoch: 20 April)

Event Time Altitude Azimuth Distance (km) Brightness Sun altitude
Exits shadow 19:27:32 41° 221° (SW) 850 3.8 -25.6°
Maximum altitude 19:28:26 48° 260° (W) 754 3.7 -25.7°
Drops below altitude 10° 19:32:24 10° 336° (NNW) 1,882 6.0 -26.4°
Sets 19:34:36 0° 342° (NNW) 2,774 6.9 -26.8°
